Albany, GA

8:14 PM EDT on October 20, 2017 (GMT -0400)
Southwest Georgia Regional

Weather History for KABY - October, 2014

Change the Weather History Date:

Friday, October 3, 2014

  Actual Average Record
Temperature  
Mean Temperature 78 °F 72 °F  
Max Temperature 84 °F 84 °F 97 °F (1986)
Min Temperature 71 °F 61 °F 40 °F (1984)
Degree Days  
Heating Degree Days 0 0  
Month to date heating degree days 0 0  
Since 1 July heating degree days 0 1  
Cooling Degree Days 13 8  
Month to date cooling degree days 33 24  
Year to date cooling degree days 2376 2380  
Growing Degree Days 26 (Base 50)    
Moisture  
Dew Point 72 °F    
Average Humidity 88    
Maximum Humidity 94    
Minimum Humidity 82    
Precipitation  
Precipitation 0.00 in 0.08 in 0.02 in (2007)
Month to date precipitation 0.24  
Year to date precipitation 39.28  
Sea Level Pressure  
Sea Level Pressure 29.97 in    
Wind  
Wind Speed 5 mph (SSW)    
Max Wind Speed 22 mph    
Max Gust Speed 29 mph    
Visibility 8 miles    
Events Rain , Thunderstorm    
T = Trace of Precipitation, MM = Missing Value Source: NWS Daily Summary

Daily Weather History Graph

Daily Weather History Graph

Search for Another Location

Airport or City:

Trip Planner

Search our weather history database for the weather conditions in past years. The results will help you decide how hot, cold, wet, or windy it might be!

Date:

Astronomy

Oct. 03, 2014 Rise Set
Actual Time 7:31 AM EDT 7:19 PM EDT
Civil Twilight 7:07 AM EDT 7:43 PM EDT
Nautical Twilight 6:39 AM EDT 8:11 PM EDT
Astronomical Twilight 6:11 AM EDT 8:39 PM EDT
Moon 3:55 PM EDT (10/3) 2:09 AM EDT (10/3)
Length of Visible Light 12h 35m
Length of Day
11h 47m
Waxing Gibbous, 71% of the Moon is Illuminated
Oct 3
Waxing Gibbous
Oct 8
Full
Oct 15
Last Quarter
Oct 23
New
Oct 30
First Quarter

Hourly Weather History & Observations

Time (EDT) Temp. Heat Index Dew Point Humidity Pressure Visibility Wind Dir Wind Speed Gust Speed Precip Events Conditions
12:53 AM 73.0 °F - 68.0 °F 84% 30.04 in 10.0 mi SSE 4.6 mph - N/A   Clear
1:53 AM 72.0 °F - 69.1 °F 91% 30.02 in 10.0 mi SE 5.8 mph - N/A   Clear
2:53 AM 72.0 °F - 69.1 °F 91% 30.02 in 10.0 mi SE 5.8 mph - N/A   Clear
3:53 AM 71.1 °F - 69.1 °F 93% 30.01 in 10.0 mi SSE 3.5 mph - N/A   Clear
4:53 AM 71.1 °F - 69.1 °F 93% 29.99 in 10.0 mi SSE 6.9 mph - N/A   Clear
5:53 AM 71.1 °F - 70.0 °F 96% 29.99 in 10.0 mi SSE 4.6 mph - N/A   Clear
7:39 AM 71.6 °F - 69.8 °F 94% 30.01 in 10.0 mi South 3.5 mph - N/A   Mostly Cloudy
7:53 AM 71.1 °F - 70.0 °F 96% 30.01 in 4.0 mi South 4.6 mph - N/A   Mostly Cloudy
8:53 AM 73.0 °F - 71.1 °F 93% 30.01 in 5.0 mi South 5.8 mph - N/A   Overcast
9:53 AM 75.9 °F - 73.0 °F 91% 30.01 in 10.0 mi South 9.2 mph - N/A   Mostly Cloudy
10:53 AM 75.9 °F - 73.9 °F 94% 30.01 in 10.0 mi SSW 8.1 mph - 0.00 in   Mostly Cloudy
11:53 AM 81.0 °F 86.7 °F 75.0 °F 82% 29.99 in 10.0 mi SSW 6.9 mph 16.1 mph N/A   Overcast
12:16 PM 82.4 °F 89.5 °F 75.2 °F 79% 30.00 in 10.0 mi SSW 10.4 mph - N/A   Overcast
12:53 PM 82.0 °F 87.9 °F 73.9 °F 76% 29.96 in 10.0 mi WSW 3.5 mph - N/A Thunderstorm Overcast
1:20 PM 80.6 °F 85.4 °F 73.4 °F 79% 29.98 in 0.5 mi NNW 16.1 mph 28.8 mph 0.00 in Rain , Thunderstorm Thunderstorms and Rain
1:26 PM 75.2 °F - 71.6 °F 89% 30.01 in 1.0 mi SW 11.5 mph 28.8 mph N/A Rain , Thunderstorm Heavy Thunderstorms and Rain
1:42 PM 73.4 °F - 71.6 °F 94% 30.00 in 4.0 mi SSW 6.9 mph - N/A Rain , Thunderstorm Thunderstorms and Rain
1:53 PM 73.0 °F - 72.0 °F 96% 29.98 in 6.0 mi Calm Calm - N/A Rain , Thunderstorm Thunderstorms and Rain
2:30 PM 73.4 °F - 71.6 °F 94% 29.93 in 5.0 mi East 3.5 mph - N/A Rain Light Rain
2:53 PM 73.9 °F - 72.0 °F 93% 29.94 in 5.0 mi South 8.1 mph - N/A   Scattered Clouds
3:07 PM 73.4 °F - 71.6 °F 94% 29.94 in 10.0 mi South 9.2 mph - N/A   Mostly Cloudy
3:53 PM 75.9 °F - 72.0 °F 87% 29.93 in 10.0 mi SSW 5.8 mph - N/A   Mostly Cloudy
4:53 PM 77.0 °F - 72.0 °F 84% 29.91 in 10.0 mi SSW 6.9 mph - N/A   Mostly Cloudy
5:53 PM 77.0 °F - 72.0 °F 84% 29.91 in 10.0 mi West 4.6 mph - N/A   Mostly Cloudy
6:38 PM 77.0 °F - 73.4 °F 89% 29.91 in 10.0 mi Calm Calm - N/A   Clear
6:53 PM 77.0 °F - 73.0 °F 88% 29.90 in 10.0 mi Calm Calm - N/A   Clear
7:35 PM 75.2 °F - 71.6 °F 89% 29.90 in 10.0 mi Calm Calm - N/A   Clear
7:53 PM 75.0 °F - 73.0 °F 94% 29.90 in 10.0 mi Calm Calm - N/A   Clear
8:53 PM 73.9 °F - 72.0 °F 93% 29.91 in 10.0 mi SSW 3.5 mph - N/A   Clear
9:53 PM 73.0 °F - 72.0 °F 96% 29.93 in 10.0 mi SW 3.5 mph - N/A   Clear
10:53 PM 73.0 °F - 72.0 °F 96% 29.94 in 10.0 mi SW 3.5 mph - N/A   Clear
11:53 PM 73.0 °F - 71.1 °F 93% 29.94 in 10.0 mi West 5.8 mph - N/A   Partly Cloudy